Hovedside
METAR-TAF:

METAR-TAF

Lufthavner :

Førde, Norge

Førde lufthamn

breddegrad: 61-27N, lengdegrad: 005-52E, høyde over havet: 150 m

Gjeldene værobservasjon

Denne rapporten ble laget for 1 time og 16 minutter siden, klokken 09:50 UTC
Vind 7 kt fra Øst-nordøst
Temperatur 3°C
Luftfuktighet 70%
Trykk 1007 hPa
Sikt 10 km eller mer
Spredte skyer i en høyde av 2500 ft

METAR: ENBL 270950Z 06007KT 9999 SCT025 03/M02 Q1007

Tid: 13:06 (11:06 UTC)


TAF: fraværende

Værobservasjoner og værvarsel for over 4000 flyplasser (METAR- og TAF-rapporter).

Tilgjengelige stasjoner er representert av de røde og gule prikkene på kartet.

Hold musepekeren over prikken for å se navnet på stasjonen.

Klikk så for å se værobservasjoner og -varsler.

For å forandre kartet kan du klikke på den grønne knappen med svart kryss for å zoome inn, på den grønne knappen med strek for å zoome ut, eller på de grønne pilene for å se tilstøtende kart.


METAR-TAF: